| time (UTC) | temp C | wind direction | speed KPH | gust KPH | rain 1hr cm | rain 24hr cm | rain mn cm | humidity % | barometer mb |
| 20260506174006 | 10 | 165 | 1.6 | 3.2 | 0.05 | 0.51 | 0.51 | 89 | 1007.1 |
| 20260506172507 | 10 | 165 | 0.0 | 3.2 | 0.08 | 0.48 | 0.48 | 89 | 1006.7 |
| 20260506171005 | 10 | 177 | 1.6 | 4.8 | 0.13 | 0.48 | 0.48 | 89 | 1006.7 |
| 20260506165506 | 10 | 185 | 3.2 | 9.7 | 0.13 | 0.46 | 0.46 | 88 | 1006.7 |
| 20260506164006 | 10 | 159 | 1.6 | 6.4 | 0.13 | 0.43 | 0.43 | 88 | 1006.8 |
| 20260506162506 | 10 | 208 | 1.6 | 4.8 | 0.10 | 0.41 | 0.41 | 86 | 1006.8 |
| 20260506161005 | 11 | 173 | 4.8 | 20.9 | 0.10 | 0.36 | 0.36 | 86 | 1006.9 |
| 20260506155505 | 11 | 189 | 3.2 | 9.7 | 0.10 | 0.33 | 0.33 | 87 | 1006.8 |
| 20260506154006 | 11 | 207 | 3.2 | 14.5 | 0.10 | 0.33 | 0.33 | 87 | 1006.7 |
| 20260506152504 | 11 | 142 | 3.2 | 8.0 | 0.08 | 0.30 | 0.30 | 88 | 1006.4 |
| 20260506151007 | 11 | 174 | 1.6 | 4.8 | 0.05 | 0.25 | 0.25 | 87 | 1006.4 |
| 20260506145505 | 12 | 174 | 0.0 | 8.0 | 0.10 | 0.23 | 0.23 | 85 | 1006.2 |
| 20260506144003 | 12 | 169 | 0.0 | 6.4 | 0.08 | 0.23 | 0.23 | 85 | 1006.1 |
| 20260506142503 | 12 | 202 | 0.0 | 3.2 | 0.10 | 0.23 | 0.23 | 84 | 1005.9 |
| 20260506141003 | 12 | 234 | 0.0 | 3.2 | 0.10 | 0.20 | 0.20 | 84 | 1005.8 |
| 20260506135504 | 12 | 242 | 0.0 | 1.6 | 0.05 | 0.15 | 0.15 | 84 | 1005.7 |
| 20260506134003 | 12 | 246 | 0.0 | 3.2 | 0.05 | 0.15 | 0.15 | 82 | 1005.8 |
| 20260506132503 | 12 | 250 | 0.0 | 3.2 | 0.05 | 0.13 | 0.13 | 82 | 1006.0 |
| 20260506131002 | 13 | 290 | 0.0 | 3.2 | 0.03 | 0.10 | 0.10 | 81 | 1005.7 |
| 20260506125504 | 13 | 279 | 0.0 | 6.4 | 0.03 | 0.10 | 0.10 | 80 | 1005.6 |
| 20260506124003 | 13 | 293 | 0.0 | 1.6 | 0.00 | 0.08 | 0.08 | 77 | 1005.6 |
| 20260506122502 | 13 | 294 | 0.0 | 3.2 | 0.03 | 0.08 | 0.08 | 78 | 1005.5 |
| 20260506121002 | 13 | 329 | 0.0 | 0.0 | 0.05 | 0.08 | 0.08 | 77 | 1005.5 |
| 20260506115507 | 13 | 332 | 0.0 | 3.2 | 0.05 | 0.08 | 0.08 | 84 | 1005.4 |
| 20260506114006 | 12 | 38 | 0.0 | 3.2 | 0.08 | 0.08 | 0.08 | 82 | 1005.4 |
| 20260506112506 | 13 | 38 | 1.6 | 6.4 | 0.05 | 0.05 | 0.05 | 79 | 1005.5 |
| 20260506111007 | 14 | 360 | 1.6 | 6.4 | 0.03 | 0.03 | 0.03 | 72 | 1005.8 |
| 20260506105506 | 15 | 175 | 0.0 | 3.2 | 0.03 | 0.03 | 0.03 | 66 | 1005.8 |
| 20260506104007 | 15 | 258 | 0.0 | 3.2 | 0.00 | 0.00 | 0.00 | 61 | 1005.8 |
| 20260506102505 | 16 | 269 | 0.0 | 3.2 | 0.00 | 0.00 | 0.00 | 61 | 1006.0 |
| 20260506101005 | 16 | 267 | 0.0 | 3.2 | 0.00 | 0.00 | 0.00 | 58 | 1006.0 |
| 20260506095505 | 16 | 273 | 0.0 | 3.2 | 0.00 | 0.00 | 0.00 | 59 | 1006.1 |
| 20260506094005 | 16 | 290 | 0.0 | 3.2 | 0.00 | 0.00 | 0.00 | 56 | 1006.2 |
| 20260506092506 | 16 | 268 | 0.0 | 1.6 | 0.00 | 0.00 | 0.00 | 60 | 1006.1 |
| 20260506091006 | 16 | 195 | 0.0 | 3.2 | 0.00 | 0.00 | 0.00 | 62 | 1006.2 |
| 20260506085505 | 16 | 204 | 1.6 | 4.8 | 0.00 | 0.00 | 0.00 | 64 | 1006.0 |
| 20260506084004 | 15 | 169 | 0.0 | 3.2 | 0.00 | 0.00 | 0.00 | 69 | 1005.9 |
| 20260506082505 | 15 | 167 | 0.0 | 0.0 | 0.00 | 0.00 | 0.00 | 68 | 1005.9 |
| 20260506081004 | 15 | 167 | 0.0 | 6.4 | 0.00 | 0.00 | 0.00 | 69 | 1005.9 |
| 20260506072503 | 13 | 150 | 0.0 | 4.8 | 0.00 | 0.00 | 0.00 | 76 | 1005.8 |
| 20260506071003 | 12 | 179 | 1.6 | 4.8 | 0.00 | 0.00 | 0.00 | 77 | 1005.7 |
| 20260506062504 | 9 | 178 | 0.0 | 0.0 | 0.00 | 0.00 | 0.00 | 88 | 1005.3 |
| 20260506061003 | 8 | 178 | 0.0 | 0.0 | 0.00 | 0.00 | 0.00 | 87 | 1005.2 |
| 20260506051008 | 8 | 178 | 0.0 | 0.0 | 0.00 | 0.00 | 0.00 | 85 | 1005.6 |
| 20260506044007 | 8 | 178 | 0.0 | 0.0 | 0.00 | 0.00 | 0.00 | 85 | 1005.6 |
| 20260506042507 | 8 | 178 | 0.0 | 0.0 | 0.00 | 0.00 | 0.00 | 83 | 1005.6 |
| 20260506041006 | 8 | 178 | 0.0 | 0.0 | 0.00 | 0.00 | 0.00 | 83 | 1005.5 |
| 20260506035506 | 8 | 178 | 0.0 | 0.0 | 0.00 | 0.00 | 0.00 | 84 | 1005.6 |
| 20260506034006 | 8 | 143 | 0.0 | 0.0 | 0.00 | 0.00 | 0.00 | 84 | 1005.6 |
| 20260506032506 | 8 | 143 | 0.0 | 3.2 | 0.00 | 0.00 | 0.00 | 86 | 1005.7 |
| 20260506031008 | 8 | 144 | 0.0 | 3.2 | 0.00 | 0.00 | 0.00 | 87 | 1006.0 |
| 20260506025506 | 8 | 143 | 0.0 | 3.2 | 0.00 | 0.00 | 0.00 | 88 | 1006.2 |
| 20260506024005 | 7 | 143 | 0.0 | 1.6 | 0.00 | 0.00 | 0.00 | 88 | 1006.1 |
| 20260506022507 | 7 | 143 | 0.0 | 3.2 | 0.00 | 0.00 | 0.00 | 87 | 1006.0 |
| 20260506021005 | 7 | 143 | 0.0 | 0.0 | 0.00 | 0.00 | 0.00 | 87 | 1006.0 |
| 20260506015505 | 7 | 143 | 0.0 | 0.0 | 0.00 | 0.00 | 0.00 | 87 | 1006.2 |
| 20260506014006 | 7 | 143 | 0.0 | 0.0 | 0.00 | 0.00 | 0.00 | 86 | 1006.4 |
| 20260506012505 | 8 | 143 | 0.0 | 0.0 | 0.00 | 0.00 | 0.00 | 86 | 1006.9 |
| 20260506011004 | 8 | 144 | 0.0 | 3.2 | 0.00 | 0.00 | 0.00 | 85 | 1006.9 |
| 20260506005504 | 8 | 143 | 0.0 | 0.0 | 0.00 | 0.00 | 0.00 | 85 | 1006.7 |
| 20260506004004 | 8 | 143 | 0.0 | 0.0 | 0.00 | 0.00 | 0.00 | 85 | 1006.6 |
| 20260506002504 | 9 | 143 | 0.0 | 0.0 | 0.00 | 0.00 | 0.00 | 83 | 1006.9 |
| 20260506001004 | 9 | 143 | 0.0 | 0.0 | 0.00 | 0.00 | 0.00 | 83 | 1007.1 |
| 20260505235504 | 10 | 143 | 0.0 | 0.0 | 0.00 | 0.00 | 0.00 | 83 | 1007.2 |
| 20260505234008 | 10 | 143 | 0.0 | 0.0 | 0.00 | 0.00 | 0.00 | 82 | 1007.3 |
| 20260505232508 | 10 | 143 | 0.0 | 3.2 | 0.00 | 0.00 | 0.00 | 82 | 1007.6 |
| 20260505231008 | 10 | 144 | 0.0 | 0.0 | 0.00 | 0.00 | 0.00 | 82 | 1007.7 |
| 20260505225509 | 10 | 144 | 0.0 | 3.2 | 0.00 | 0.00 | 0.00 | 82 | 1007.6 |
| 20260505224008 | 10 | 154 | 0.0 | 3.2 | 0.00 | 0.00 | 0.00 | 82 | 1007.6 |
| 20260505222509 | 10 | 154 | 0.0 | 4.8 | 0.00 | 0.00 | 0.00 | 82 | 1007.6 |
| 20260505221008 | 10 | 150 | 0.0 | 3.2 | 0.00 | 0.00 | 0.00 | 83 | 1007.5 |
| 20260505215507 | 10 | 160 | 0.0 | 3.2 | 0.00 | 0.41 | 0.41 | 83 | 1008.5 |
| 20260505214009 | 11 | 160 | 0.0 | 1.6 | 0.00 | 0.41 | 0.41 | 83 | 1008.6 |
| 20260505212506 | 11 | 160 | 0.0 | 0.0 | 0.00 | 0.41 | 0.41 | 83 | 1008.7 |
| 20260505211007 | 11 | 160 | 0.0 | 3.2 | 0.00 | 0.41 | 0.41 | 84 | 1008.7 |
| 20260505205508 | 10 | 156 | 1.6 | 4.8 | 0.00 | 0.41 | 0.41 | 84 | 1008.5 |
| 20260505204006 | 10 | 155 | 0.0 | 1.6 | 0.00 | 0.41 | 0.41 | 84 | 1008.4 |
| 20260505202506 | 10 | 155 | 0.0 | 1.6 | 0.00 | 0.41 | 0.41 | 84 | 1008.3 |
| 20260505201007 | 11 | 155 | 0.0 | 0.0 | 0.00 | 0.41 | 0.41 | 83 | 1008.0 |
| 20260505195505 | 11 | 155 | 0.0 | 0.0 | 0.00 | 0.41 | 0.41 | 83 | 1007.8 |
| 20260505194005 | 11 | 155 | 0.0 | 0.0 | 0.00 | 0.41 | 0.41 | 83 | 1007.6 |
| 20260505192505 | 11 | 155 | 1.6 | 4.8 | 0.00 | 0.41 | 0.41 | 83 | 1007.6 |
| 20260505191005 | 11 | 169 | 1.6 | 6.4 | 0.00 | 0.41 | 0.41 | 83 | 1007.5 |
| 20260505185506 | 11 | 169 | 0.0 | 3.2 | 0.03 | 0.41 | 0.41 | 84 | 1007.2 |
| 20260505184004 | 11 | 169 | 0.0 | 3.2 | 0.03 | 0.41 | 0.41 | 84 | 1007.0 |
| 20260505182504 | 12 | 169 | 0.0 | 3.2 | 0.03 | 0.41 | 0.41 | 84 | 1006.9 |
| 20260505181004 | 12 | 169 | 0.0 | 6.4 | 0.03 | 0.41 | 0.41 | 85 | 1006.7 |
| 20260505175504 | 12 | 169 | 0.0 | 3.2 | 0.00 | 0.38 | 0.38 | 85 | 1007.0 |